This is the latest recevied weather packets stored in our database for station/object EA1FBN. If no packets are shown the sender has not sent any weather packets the latest 10 day(s).
| Time | Temp. | Humidity | Pressure | Rain* | Wind** | Luminosity | Snow |
|---|---|---|---|---|---|---|---|
| 1777998609 | 12.22° C | 64% | 1014.5 hPa | 0 mm | - | - | - |
| 1777998309 | 12.22° C | 69% | 1014.5 hPa | 0 mm | - | - | - |
| 1777998009 | 11.67° C | 68% | 1014.5 hPa | 0 mm | - | - | - |
| 1777997709 | 11.67° C | 68% | 1014.5 hPa | 0 mm | - | - | - |
| 1777997409 | 11.11° C | 68% | 1014.6 hPa | 0 mm | - | - | - |
| 1777997109 | 11.11° C | 67% | 1014.5 hPa | 0 mm | - | - | - |
| 1777996809 | 11.11° C | 70% | 1014.4 hPa | 0 mm | - | - | - |
| 1777996509 | 11.67° C | 68% | 1014.4 hPa | 0 mm | - | - | - |
| 1777996209 | 11.67° C | 64% | 1014.4 hPa | 0 mm | - | - | - |
| 1777995909 | 12.78° C | 60% | 1014.3 hPa | 0 mm | - | - | - |
| 1777995609 | 13.33° C | 56% | 1014.2 hPa | 0 mm | - | - | - |
| 1777995309 | 13.89° C | 52% | 1014.1 hPa | 0 mm | - | - | - |
| 1777995009 | 13.89° C | 54% | 1014 hPa | 0 mm | - | - | - |
| 1777994709 | 13.89° C | 52% | 1014 hPa | 0 mm | - | - | - |
| 1777994409 | 14.44° C | 53% | 1014 hPa | 0 mm | - | - | - |
| 1777994109 | 13.89° C | 53% | 1014.1 hPa | 0 mm | - | - | - |
| 1777993809 | 13.89° C | 51% | 1014 hPa | 0 mm | - | - | - |
| 1777993509 | 13.89° C | 52% | 1014 hPa | 0 mm | - | - | - |
| 1777993209 | 14.44° C | 50% | 1014 hPa | 0 mm | - | - | - |
| 1777992909 | 13.33° C | 54% | 1014.1 hPa | 0 mm | - | - | - |
| 1777992609 | 13.89° C | 53% | 1014.1 hPa | 0 mm | - | - | - |
| 1777992309 | 13.89° C | 56% | 1014.1 hPa | 0 mm | - | - | - |
| 1777992009 | 13.89° C | 57% | 1014.3 hPa | 0 mm | - | - | - |
| 1777991709 | 13.89° C | 52% | 1014.3 hPa | 0 mm | - | - | - |
| 1777991409 | 13.89° C | 54% | 1014.3 hPa | 0 mm | - | - | - |
* Rain latest hour (hover to see other rain measurements)
** Current wind speed in m/s (hover to see current wind gust speed)